Home   Weather   Woodbridge Run   Past weeks
Flag for USA

Past Weather in Woodbridge Run, North Carolina, USA — Yesterday and Last 2 Weeks

Now
42 °F

Clear.


Feels Like: 40 °F
Forecast: 59 / 38 °F
Wind: 3 mph from Northwest

Location: Davidson County Airport

Current Time: Mar 22, 2019 at 3:10:57 am

Latest Report: Mar 22, 2019 at 2:20 am


Visibility: 10 mi

Pressure: 29.82 "Hg

Humidity: 80%

Dew Point: 36 °F

Location of Woodbridge RunLocation

Past Weather in Woodbridge Run — Graph

°F

Woodbridge Run Temperature Yesterday

Maximum temperature yesterday: 60 °F (at 2:40 pm)
Minimum temperature yesterday: 41 °F (at 5:00 am)
Average temperature yesterday: 48 °F

High & Low Weather Summary for the Past Weeks

 TemperatureHumidityPressure
High72 °F (Mar 14, 4:40 pm)100% (Mar 8, 5:40 pm)30.45 "Hg (Mar 8, 5:40 pm)
Low24 °F (Mar 7, 4:00 am)19% (Mar 18, 5:00 pm)29.75 "Hg (Mar 21, 5:00 pm)
Average48 °F63%30.18 "Hg
* Reported Mar 7 12:00 am — Mar 22 1:40 am, Woodbridge Run. Weather by CustomWeather, © 2019

Note: Actual official high and low records may vary slightly from our data, if they occured in-between our weather recording intervals... More about our weather records

Advertising

Woodbridge Run Weather History for the Previous 24 Hours

Scroll right to see more
 ConditionsComfort  
Time TempWeatherWind HumidityBarometerVisibility
1:40 am
Fri, Mar 22
42 °FClear.No wind85%29.83 "Hg10 mi
1:20 am42 °FClear.No wind85%29.83 "Hg10 mi
1:00 am43 °FClear.No wind79%29.83 "Hg10 mi
12:40 am44 °FClear.No wind78%29.82 "Hg10 mi
12:20 am43 °FClear.No wind85%29.83 "Hg10 mi
12:00 am44 °FClear.3 mph86%29.82 "Hg10 mi
11:40 pm
Thu, Mar 21
44 °FClear.3 mph86%29.81 "Hg10 mi
11:20 pm45 °FClear.No wind87%29.81 "Hg10 mi
11:00 pm45 °FClear.No wind93%29.81 "Hg10 mi
10:40 pm45 °FClear.3 mph96%29.80 "Hg10 mi
10:20 pm46 °FClear.3 mph97%29.80 "Hg10 mi
10:00 pm46 °FClear.3 mph99%29.80 "Hg10 mi
9:20 pm46 °FPassing clouds.No wind100%29.80 "Hg10 mi
8:20 pm47 °FLight rain. Mostly cloudy.5 mph100%29.80 "Hg10 mi
7:40 pm48 °FRain. Mostly cloudy.6 mph96%29.80 "Hg7 mi
7:20 pm54 °FMostly cloudy.9 mph56%29.78 "Hg10 mi
7:00 pm55 °FMostly cloudy.3 mph55%29.76 "Hg10 mi
6:00 pm57 °FPartly sunny.6 mph50%29.76 "Hg10 mi
5:40 pm58 °FScattered clouds.7 mph49%29.75 "Hg10 mi
5:00 pm57 °FSunny.6 mph50%29.75 "Hg10 mi
4:40 pm57 °FSunny.7 mph49%29.76 "Hg10 mi
4:20 pm57 °FScattered clouds.12 mph49%29.76 "Hg10 mi
4:00 pm56 °FScattered clouds.8 mph50%29.76 "Hg10 mi
3:40 pm57 °FScattered clouds.9 mph47%29.77 "Hg10 mi
3:20 pm58 °FBroken clouds.13 mph45%29.78 "Hg10 mi
3:00 pm59 °FScattered clouds.8 mph41%29.78 "Hg10 mi
2:40 pm60 °FBroken clouds.7 mph40%29.78 "Hg10 mi
2:20 pm60 °FScattered clouds.7 mph40%29.79 "Hg10 mi
2:00 pm58 °FScattered clouds.7 mph44%29.80 "Hg10 mi
1:40 pm57 °FScattered clouds.9 mph51%29.81 "Hg10 mi
1:00 pm56 °FRefreshingly cool.6 mph58%29.83 "Hg10 mi
12:40 pm54 °FCool.No wind72%29.84 "Hg10 mi
12:20 pm54 °FCool.3 mph76%29.85 "Hg10 mi
12:00 pm51 °FCool.3 mph86%29.86 "Hg10 mi
11:40 am50 °FOvercast.3 mph89%29.87 "Hg10 mi
11:00 am49 °FOvercast.5 mph92%29.88 "Hg10 mi
10:40 am47 °FOvercast.No wind99%29.89 "Hg10 mi
10:20 am47 °FOvercast.5 mph100%29.88 "Hg10 mi
10:00 am46 °FOvercast.6 mph100%29.89 "Hg10 mi
9:40 am46 °FOvercast.5 mph100%29.90 "Hg10 mi
9:20 am44 °FOvercast.No wind100%29.90 "Hg10 mi
9:00 am44 °FCloudy.3 mph100%29.90 "Hg10 mi
8:40 am43 °FMostly cloudy.No wind100%29.90 "Hg10 mi
8:00 am43 °FLow clouds.3 mph100%29.90 "Hg10 mi
7:40 am43 °FLight rain. Low clouds.No wind100%29.91 "Hg5 mi
7:20 am42 °FLight rain. Partly cloudy.3 mph100%29.90 "Hg7 mi
7:00 am42 °FLight rain. Mostly cloudy.5 mph100%29.91 "Hg7 mi
6:40 am42 °FDrizzle. Overcast.5 mph100%29.91 "Hg4 mi
6:20 am42 °FLight rain. Overcast.3 mph100%29.92 "Hg4 mi
6:00 am42 °FMostly cloudy.7 mph100%29.92 "Hg7 mi
5:40 am42 °FDrizzle. Low clouds.5 mph100%29.93 "Hg7 mi
5:20 am41 °FDrizzle. Mostly cloudy.5 mph100%29.93 "Hg5 mi
5:00 am41 °FPartly cloudy.6 mph100%29.93 "Hg4 mi
4:40 am42 °FDrizzle. Overcast.6 mph100%29.95 "Hg3 mi
4:20 am42 °FDrizzle. Overcast.3 mph100%29.96 "Hg3 mi
4:00 am42 °FDrizzle. Overcast.5 mph100%29.97 "Hg3 mi
3:20 am42 °FPassing clouds.No wind100%29.99 "Hg5 mi
3:00 am42 °FPassing clouds.5 mph100%30.00 "Hg4 mi
Weather by CustomWeather, © 2019

See weather overview